Regional Weather Roundup
Issued by NWS

Home | Current Version | Previous Version | Text Only | Print | Product List | Glossary Off
Versions: 1 2 3 4 5 6 7 8 9 10 11 12 13 14 15 16 17 18 19 20 21 22 23 24 25 26 27 28 29 30 31 32 33 34 35 36 37 38 39 40 41 42 43 44 45 46 47 48 49 50

000
ASUS43 KBIS 211210
RWRND

NORTH DAKOTA REGIONAL WEATHER ROUNDUP
NATIONAL WEATHER SERVICE BISMARCK ND
700 AM CDT MON AUG 21 2017

NOTE: "FAIR" INDICATES FEW OR NO CLOUDS BELOW 12,000 FEET WITH NO
SIGNIFICANT WEATHER AND/OR OBSTRUCTIONS TO VISIBILITY.


NDZ001>003-009>011-017-211300-
NORTHWEST NORTH DAKOTA

CITY           SKY/WX    TMP DP  RH WIND       PRES   REMARKS
WILLISTON      CLOUDY    57  48  72 S3        29.96R
6HR MIN TEMP:  56; 6HR MAX TEMP:  64;

MINOT          PTCLDY    56  49  77 SE5       29.95F
MINOT AFB      PTCLDY    55  49  79 SE5       29.94F
$$

NDZ018>021-031>035-040>046-211300-
SOUTHWEST NORTH DAKOTA

CITY           SKY/WX    TMP DP  RH WIND       PRES   REMARKS
BISMARCK       CLOUDY    57  55  93 S3        29.97R
6HR MIN TEMP:  54; 6HR MAX TEMP:  60; 6HR PCP:  0.10;

DICKINSON      CLOUDY    49  47  93 S5        29.98S
GARRISON         N/A     59  54  83 SW5       29.94R
6HR MIN TEMP:  58; 6HR MAX TEMP:  61;

HETTINGER ARPT CLOUDY    48  46  93 W3        30.03R
$$

NDZ004>008-012>016-024-026-027-054-211300-
NORTHEAST NORTH DAKOTA

CITY           SKY/WX    TMP DP  RH WIND       PRES   REMARKS
GRAND FORKS    CLOUDY    57  54  89 SW3       30.01R
GRND FRKS AFB  CLOUDY    56  52  89 SW3       30.02S
DEVILS LAKE    CLOUDY    57  54  89 NE8       29.99F
$$

NDZ022-023-025-028>030-036>039-047>053-211300-
SOUTHEAST NORTH DAKOTA

CITY           SKY/WX    TMP DP  RH WIND       PRES   REMARKS
FARGO          LGT RAIN  61  57  87 SE7       30.01F
6HR MIN TEMP:  56; 6HR MAX TEMP:  62; 6HR PCP: TRACE;

JAMESTOWN      CLOUDY    57  55  93 N3        30.02R
$$





USA.gov is the U.S. government's official web portal to all federal, state and local government web resources and services.